Date String (YYYY-MM-DD hh:mm:ss) UTC,Instrument flags,Ambient pressure (hPa),Sample flow (lpm),Bypass flow (lpm),Sample temperature (°C),Ambient temperature (°C),ASC tube jacket temperature (°C),LED temperature (°C),Box temperature (°C),Sample RH (%),Span deviation,Mass concentration (μg/m³),Mass concentration (μg/m³),Mass concentration (μg/m³)
DateTimeUTC,F1_M11,P_M11,Q1_M11,Q2_M11,T1_M11,T2_M11,T3_M11,T4_M11,T5_M11,U1_M11,ZSPAN_M11,X0_M11,X2_M11,X1_M11
2022-08-27 18:00:00,,0823.3,4.99,0.00,29.6,28.1,00.0,38.2,31.5,14.2,0000.0,0010.21,0004.91,0004.46
2022-08-27 18:01:00,,0823.4,5.01,0.00,29.6,27.0,00.0,38.2,31.4,14.1,0000.0,0010.28,0004.86,0004.44
2022-08-27 18:02:00,,0823.4,4.99,0.00,29.6,26.7,00.0,38.2,31.4,14.0,0000.0,0010.51,0004.82,0004.42
2022-08-27 18:03:00,,0823.4,5.00,0.00,29.5,26.9,00.0,38.2,31.4,13.8,0000.0,0010.27,0004.80,0004.40
2022-08-27 18:04:00,,0823.4,5.01,0.00,29.5,27.2,00.0,38.1,31.3,14.1,0000.0,0010.13,0004.78,0004.36
2022-08-27 18:05:00,,0823.4,5.00,0.00,29.5,27.5,00.0,38.1,31.3,14.4,0000.0,0010.01,0004.75,0004.32
2022-08-27 18:06:00,,0823.3,4.99,0.00,29.5,27.7,00.0,38.1,31.3,14.8,0000.0,0009.98,0004.71,0004.30
2022-08-27 18:07:00,,0823.3,5.00,0.00,29.5,27.9,00.0,38.1,31.3,14.8,0000.0,0010.19,0004.71,0004.29
2022-08-27 18:08:00,,0823.3,5.01,0.00,29.5,28.1,00.0,38.2,31.4,14.5,0000.0,0010.17,0004.72,0004.29
2022-08-27 18:09:00,,0823.3,5.00,0.00,29.5,28.3,00.0,38.2,31.4,14.5,0000.0,0009.95,0004.70,0004.29
2022-08-27 18:10:00,,0823.4,5.01,0.00,29.6,28.2,00.0,38.2,31.5,13.8,0000.0,0009.75,0004.66,0004.28
2022-08-27 18:11:00,,0823.3,5.00,0.00,29.6,27.1,00.0,38.2,31.4,14.2,0000.0,0009.77,0004.64,0004.28
2022-08-27 18:12:00,,0823.4,5.01,0.00,29.5,26.6,00.0,38.1,31.3,15.0,0000.0,0009.63,0004.65,0004.27
2022-08-27 18:13:00,,0823.3,5.00,0.00,29.5,26.9,00.0,38.1,31.3,15.4,0000.0,0009.05,0004.65,0004.27
2022-08-27 18:14:00,,0823.3,5.00,0.00,29.4,27.1,00.0,38.1,31.2,15.6,0000.0,0008.94,0004.63,0004.27
2022-08-27 18:15:00,,0823.3,5.00,0.00,29.4,27.4,00.0,38.1,31.2,15.4,0000.0,0009.05,0004.65,0004.27
2022-08-27 18:16:00,,0823.3,4.99,0.00,29.4,27.7,00.0,38.1,31.2,15.2,0000.0,0009.10,0004.66,0004.26
2022-08-27 18:17:00,,0823.3,5.01,0.00,29.4,27.9,00.0,38.1,31.3,15.6,0000.0,0009.16,0004.67,0004.26
2022-08-27 18:18:00,,0823.4,5.00,0.00,29.5,28.1,00.0,38.1,31.3,14.9,0000.0,0008.74,0004.64,0004.26
2022-08-27 18:19:00,,0823.4,5.01,0.00,29.5,28.3,00.0,38.1,31.4,14.2,0000.0,0008.46,0004.66,0004.26
2022-08-27 18:20:00,,0823.4,5.00,0.00,29.5,28.2,00.0,38.1,31.4,14.2,0000.0,0008.31,0004.67,0004.26
2022-08-27 18:21:00,,0823.4,5.00,0.00,29.5,27.3,00.0,38.1,31.3,14.9,0000.0,0008.29,0004.66,0004.25
2022-08-27 18:22:00,,0823.4,4.98,0.00,29.5,26.6,00.0,38.1,31.3,15.0,0000.0,0008.25,0004.67,0004.24
2022-08-27 18:23:00,,0823.4,5.00,0.00,29.5,26.9,00.0,38.1,31.3,14.5,0000.0,0008.42,0004.66,0004.23
2022-08-27 18:24:00,,0823.4,5.00,0.00,29.4,27.1,00.0,38.1,31.2,14.6,0000.0,0008.68,0004.67,0004.23
2022-08-27 18:25:00,,0823.4,5.00,0.00,29.4,27.4,00.0,38.1,31.2,14.6,0000.0,0008.87,0004.72,0004.22
2022-08-27 18:26:00,,0823.4,5.01,0.00,29.4,27.6,00.0,38.1,31.2,15.0,0000.0,0008.70,0004.68,0004.22
2022-08-27 18:27:00,,0823.3,5.00,0.00,29.4,27.9,00.0,38.1,31.3,14.7,0000.0,0008.53,0004.63,0004.20
2022-08-27 18:28:00,,0823.3,5.01,0.00,29.5,28.1,00.0,38.1,31.3,14.6,0000.0,0008.51,0004.64,0004.19
2022-08-27 18:29:00,,0823.3,5.00,0.00,29.5,28.3,00.0,38.1,31.4,14.2,0000.0,0008.54,0004.65,0004.19
2022-08-27 18:30:00,,0823.4,5.00,0.00,29.5,28.3,00.0,38.1,31.5,14.8,0000.0,0008.56,0004.63,0004.18
2022-08-27 18:31:00,,0823.4,5.00,0.00,29.5,27.5,00.0,38.1,31.4,15.1,0000.0,0008.54,0004.66,0004.18
2022-08-27 18:32:00,,0823.4,4.99,0.00,29.5,26.7,00.0,38.1,31.3,15.0,0000.0,0008.46,0004.68,0004.17
2022-08-27 18:33:00,,0823.4,4.99,0.00,29.5,26.9,00.0,38.1,31.3,15.3,0000.0,0008.72,0004.70,0004.18
2022-08-27 18:34:00,,0823.4,5.01,0.00,29.4,27.1,00.0,38.0,31.2,15.3,0000.0,0009.07,0004.73,0004.19
2022-08-27 18:35:00,,0823.3,4.99,0.00,29.4,27.4,00.0,38.0,31.2,15.1,0000.0,0008.81,0004.76,0004.20
2022-08-27 18:36:00,,0823.4,5.01,0.00,29.4,27.7,00.0,38.0,31.2,14.8,0000.0,0008.70,0004.71,0004.20
2022-08-27 18:37:00,,0823.3,5.00,0.00,29.4,27.9,00.0,38.0,31.3,15.0,0000.0,0009.57,0004.73,0004.21
2022-08-27 18:38:00,,0823.4,5.01,0.00,29.5,28.1,00.0,38.1,31.3,14.8,0000.0,0009.70,0004.77,0004.23
2022-08-27 18:39:00,,0823.3,5.00,0.00,29.5,28.3,00.0,38.1,31.4,14.4,0000.0,0009.66,0004.76,0004.24
2022-08-27 18:40:00,,0823.3,5.00,0.00,29.5,28.0,00.0,38.1,31.4,14.1,0000.0,0009.69,0004.76,0004.24
2022-08-27 18:41:00,,0823.4,5.00,0.00,29.5,27.0,00.0,38.1,31.3,14.1,0000.0,0009.85,0004.80,0004.24
2022-08-27 18:42:00,,0823.3,5.01,0.00,29.5,26.7,00.0,38.1,31.3,14.1,0000.0,0010.25,0004.76,0004.23
2022-08-27 18:43:00,,0823.2,4.99,0.00,29.4,27.0,00.0,38.0,31.3,13.8,0000.0,0010.20,0004.74,0004.24
2022-08-27 18:44:00,,0823.3,5.00,0.00,29.4,27.2,00.0,38.0,31.2,13.7,0000.0,0010.57,0004.71,0004.22
2022-08-27 18:45:00,,0823.3,5.01,0.00,29.4,27.5,00.0,38.0,31.2,13.9,0000.0,0010.31,0004.66,0004.20
2022-08-27 18:46:00,,0823.2,4.99,0.00,29.4,27.8,00.0,38.0,31.2,14.1,0000.0,0010.14,0004.59,0004.18
2022-08-27 18:47:00,,0823.4,5.01,0.00,29.4,28.0,00.0,38.0,31.3,14.4,0000.0,0010.11,0004.62,0004.17
2022-08-27 18:48:00,,0823.2,5.00,0.00,29.5,28.2,00.0,38.1,31.4,13.8,0000.0,0009.39,0004.63,0004.18
2022-08-27 18:49:00,,0823.3,5.00,0.00,29.5,28.3,00.0,38.1,31.4,13.4,0000.0,0009.37,0004.63,0004.17
2022-08-27 18:50:00,,0823.3,4.99,0.00,29.5,27.6,00.0,38.1,31.4,12.8,0000.0,0009.40,0004.64,0004.15
2022-08-27 18:51:00,,0823.2,5.00,0.00,29.5,26.6,00.0,38.1,31.3,12.8,0000.0,0009.46,0004.62,0004.13
2022-08-27 18:52:00,,0823.3,5.01,0.00,29.4,26.6,00.0,38.0,31.3,12.3,0000.0,0009.52,0004.54,0004.11
2022-08-27 18:53:00,,0823.2,5.00,0.00,29.4,26.9,00.0,38.0,31.2,12.7,0000.0,0008.94,0004.53,0004.10
2022-08-27 18:54:00,,0823.2,4.99,0.00,29.4,27.2,00.0,38.0,31.1,12.8,0000.0,0008.97,0004.50,0004.08
2022-08-27 18:55:00,,0823.2,5.00,0.00,29.4,27.5,00.0,38.0,31.2,12.3,0000.0,0008.58,0004.50,0004.06
2022-08-27 18:56:00,,0823.2,5.00,0.00,29.4,27.7,00.0,38.0,31.2,12.2,0000.0,0008.25,0004.48,0004.05
2022-08-27 18:57:00,,0823.2,5.00,0.00,29.4,28.0,00.0,38.0,31.3,12.0,0000.0,0008.74,0004.50,0004.04
2022-08-27 18:58:00,,0823.1,5.00,0.00,29.4,28.2,00.0,38.0,31.3,12.0,0000.0,0009.17,0004.48,0004.03
2022-08-27 18:59:00,,0823.1,5.00,0.00,29.5,28.1,00.0,38.1,31.4,12.2,0000.0,0010.27,0004.45,0004.01
